Location: Unspecified
(0.0000°N, 0.0000°E)
Time: 10:40:42
(UTC+00:00)

Amsat-Oscar-8 - Visible Passes

Search period start: 05 June 2023 00:00
Search period end: 15 June 2023 00:00
Orbit: 891 x 901 km, 99.2° (Epoch: 04 June)

Date Brightness Start Highest point End Pass type
(mag) Time Alt. Az. Time Alt. Az. Time Alt. Az.
05 Jun 10.8 02:59:30 10° NNE 03:01:25 22° NNE 03:01:25 22° NNE visible
06 Jun 10.8 03:00:53 10° NNE 03:02:50 23° NNE 03:02:50 23° NNE visible
07 Jun 10.7 03:02:15 10° NNE 03:04:15 23° NNE 03:04:15 23° NNE visible
08 Jun 10.7 03:03:38 10° NNE 03:05:40 23° NNE 03:05:40 23° NNE visible
09 Jun 10.7 03:05:01 10° NNE 03:07:05 24° NNE 03:07:05 24° NNE visible
10 Jun 10.6 03:06:23 10° NNE 03:08:30 24° NNE 03:08:30 24° NNE visible
11 Jun 10.6 03:07:46 10° NNE 03:09:55 24° NNE 03:09:55 24° NNE visible
12 Jun 10.6 03:09:09 10° NNE 03:11:20 25° NNE 03:11:20 25° NNE visible
13 Jun 10.6 03:10:32 10° NNE 03:12:44 25° NNE 03:12:44 25° NNE visible
14 Jun 10.5 03:11:55 10° NNE 03:14:09 25° NNE 03:14:09 25° NNE visible
